Flag for Canada Weather past 2 weeks in Barrie, Ontario, Canada

27 °F

Low clouds.

Feels Like: 20 °F
Forecast: 23 / 34 °F
Wind: 6 mph from North

Location: Borden

Current Time: Nov 28, 2015 at 7:02:24 AM

Latest Report: Nov 28, 2015 at 6:00 AM

Visibility: 9 mi

Pressure: 30.37 "Hg

Humidity: 93%

Dew point: 25 °F

Location of BarrieLocation

Historic Weather in Barrie — Graph


Barrie temperature yesterday

Maximum temperature yesterday: 59 °F (at 12:00 AM)
Minimum temperature yesterday: 30 °F (at 9:00 PM)
Average temperature yesterday: 46 °F

Past Weeks' High & Low Weather Summary

High59 °F (Nov 19, 2:59 AM)100% (Nov 15, 7:00 PM)30.58 "Hg (Nov 15, 7:00 PM)
Low10 °F (Nov 23, 2:00 AM)37% (Nov 17, 3:00 PM)29.48 "Hg (Nov 13, 6:00 AM)
Average38 °F82%30.13 "Hg
* Reported Nov 13 6:00 AM — Nov 28 6:00 AM, Barrie, Weather by CustomWeather, © 2015

Note: Actual official high and low records may vary slightly from our data, if they occured in-between our weather recording intervals... More about our weather records


Barrie weather history for previous 24 hours

Time TempWeatherWind HumidityBarometerVisibility
6:00 AM
Sat, Nov 28
27 °FLow clouds.6 mph93%30.37 "Hg9 mi
5:02 AM28 °FLow clouds.6 mph86%30.34 "Hg9 mi
4:00 AM28 °FOvercast.8 mph86%30.37 "Hg9 mi
3:00 AM28 °FOvercast.6 mph86%30.39 "Hg9 mi
2:00 AM30 °FPassing clouds.8 mph86%30.38 "Hg9 mi
1:00 AM30 °FClear.6 mph86%30.37 "Hg9 mi
12:00 AM30 °FClear.8 mph86%30.37 "Hg9 mi
11:00 PM
Fri, Nov 27
30 °FPassing clouds.6 mph86%30.35 "Hg9 mi
10:01 PM30 °FPassing clouds.6 mph86%30.33 "Hg9 mi
9:00 PM30 °FOvercast.9 mph93%30.35 "Hg9 mi
8:00 PM32 °FLight snow. Overcast.10 mph93%30.35 "Hg3 mi
7:00 PM34 °FLight rain. Low clouds.9 mph93%30.32 "Hg3 mi
6:04 PM34 °FLight rain. Overcast.8 mph93%30.29 "Hg9 mi
6:01 PM34 °FOvercast.8 mph100%30.29 "Hg9 mi
5:04 PM36 °FLight rain. Low clouds.10 mph93%30.26 "Hg9 mi
4:00 PM37 °FLow clouds.10 mph93%30.25 "Hg9 mi
3:00 PM39 °FLow clouds.13 mph93%30.23 "Hg9 mi
2:00 PM39 °FLow clouds.12 mph100%30.21 "Hg9 mi
1:02 PM41 °FLow clouds.9 mph100%30.19 "Hg9 mi
12:02 PM43 °FDrizzle. Low clouds.8 mph93%30.16 "Hg7 mi
11:01 AM52 °FLight rain. Low clouds.9 mph100%30.15 "Hg7 mi
10:04 AM52 °FLight rain. Overcast.9 mph100%30.14 "Hg9 mi
10:00 AM52 °FOvercast.9 mph100%30.14 "Hg9 mi
9:00 AM52 °FLight rain. Overcast.12 mph94%30.16 "Hg9 mi
8:00 AM52 °FLight rain. Overcast.12 mph94%30.18 "Hg4 mi
7:00 AM52 °FLight rain. Overcast.12 mph94%30.18 "Hg9 mi
Weather by CustomWeather, © 2015

See weather overviewHow to use our weather pages